Stations météo

réclame
Mon MeteoGroup
Lulea/Kallax, Suède (2186): Température de l'air & dewpoint: 06.12.2017 05:00:00 - 12.12.2017 05:00:00 (CET)Lulea/Kallax, Suède (2186): Vitesse du vent & gusts: 06.12.2017 05:00:00 - 12.12.2017 05:00:00 (CET)Lulea/Kallax, Suède (2186): Direction du vent: 06.12.2017 05:00:00 - 12.12.2017 05:00:00 (CET)Lulea/Kallax, Suède (2186): reduced air pressure: 06.12.2017 05:00:00 - 12.12.2017 05:00:00 (CET)Lulea/Kallax, Suède (2186): visibility: 06.12.2017 05:00:00 - 12.12.2017 05:00:00 (CET)Lulea/Kallax, Suède (2186): Quantités de précipitations: 06.12.2017 05:00:00 - 12.12.2017 05:00:00 (CET)
Date & Time tt [°C] td [°C] ff [km/h] ff [knt] fx [km/h] fx [knt] dd ppp [hPa] vv [km] rr [mm]
12.12.2017 05:00:00 -1,0 -1,7 11 6 18 10 SE 1002,1 10 0,0
12.12.2017 04:00:00 -0,9 -1,5 9 5 14 8 ESE 1002,2 10 0,0
12.12.2017 03:00:00 -0,2 -0,6 11 6 18 10 SSE 1002,4 10 0,0
12.12.2017 02:00:00 -0,3 -0,9 13 7 18 10 SE 1002,6 10 0,0
12.12.2017 01:00:00 -1,6 -1,9 9 5 14 8 SE 1002,9 10 0,0
12.12.2017 00:00:00 -1,3 -1,6 8 4 14 8 SE 1003,2 10 0,0
11.12.2017 23:00:00 -0,2 -0,3 9 5 14 8 S 1003,4 10 0,0
11.12.2017 22:00:00 0,0 -0,1 9 5 11 6 SSE 1003,4 10 0,0
11.12.2017 21:00:00 0,0 -0,3 9 5 18 10 S 1003,3 3,0 0,9
11.12.2017 20:00:00 0,0 -0,4 9 5 14 8 SSE 1002,9 4,1 0,3
11.12.2017 19:00:00 -0,1 -0,4 5 3 14 8 SSE 1002,7 10 0,0
11.12.2017 18:00:00 -0,5 -0,8 8 4 11 6 SE 1002,5 10 0,0
11.12.2017 17:00:00 -0,6 -0,7 5 3 11 6 SE 1002,0 10 0,0
11.12.2017 16:00:00 -0,4 -0,7 5 3 7 4 ESE 1001,5 10 0,0
11.12.2017 15:00:00 -0,9 -1,2 8 4 7 4 SE 1001,1 10 0,0
11.12.2017 14:00:00 -0,8 -1,1 0 0 4 2 N 1000,8 10 0,0
11.12.2017 13:00:00 -0,2 -0,6 2 1 11 6 - 1000,4 10 0,0
11.12.2017 12:00:00 -0,4 -1,0 9 5 11 6 SSW 1000,5 10 0,0
11.12.2017 11:00:00 0,2 -0,4 8 4 14 8 S 1000,0 2,0 0,1
11.12.2017 10:00:00 0,2 -0,2 8 4 11 6 S 999,6 3,0 0,0
11.12.2017 09:00:00 0,3 -0,3 5 3 14 8 S 998,8 4,0 0,0
11.12.2017 08:00:00 0,0 -0,4 9 5 18 10 ESE 998,2 4,0 0,0
11.12.2017 07:00:00 -0,4 -1,0 11 6 18 10 SSE 997,5 5 0,0
11.12.2017 06:00:00 -0,1 -0,9 13 7 18 10 S 997,1 10 0,0
11.12.2017 05:00:00 -0,1 -0,7 9 5 14 8 ESE 996,7 10 0,0
11.12.2017 04:00:00 -0,6 -0,9 8 4 11 6 SE 996,3 10 0,0
11.12.2017 03:00:00 -0,1 -0,4 9 5 14 8 SE 996,1 7 0,0
11.12.2017 02:00:00 -0,3 -0,7 8 4 18 10 SE 995,8 6 0,3
11.12.2017 01:00:00 0,2 -0,5 9 5 18 10 ESE 995,7 9 0,0
11.12.2017 00:00:00 0,4 -0,6 5 3 14 8 E 995,5 10 0,0
10.12.2017 23:00:00 0,4 -0,7 9 5 14 8 ESE 995,4 10 0,0
10.12.2017 22:00:00 0,5 -0,9 8 4 14 8 ESE 995,3 10 0,0
10.12.2017 21:00:00 0,5 -1,3 11 6 22 12 ESE 995,3 10 0,0
10.12.2017 20:00:00 0,5 -1,3 15 8 22 12 SE 995,3 10 0,0
10.12.2017 19:00:00 0,6 -1,4 15 8 25 14 ESE 995,3 10 0,0
10.12.2017 18:00:00 0,8 -1,6 18 10 32 18 SE 995,3 10 0,0
10.12.2017 17:00:00 0,8 -1,6 26 14 36 19 SE 995,4 10 0,0
10.12.2017 16:00:00 0,8 -1,6 28 15 40 21 SE 995,3 10 0,0
10.12.2017 15:00:00 1,0 -1,2 31 17 40 21 SE 995,1 10 0,0
10.12.2017 14:00:00 1,0 -1,1 31 17 40 21 SE 995,2 10 0,0
10.12.2017 13:00:00 0,6 -0,5 37 20 47 25 SSE 995,2 10 0,0
10.12.2017 12:00:00 0,6 -0,3 31 17 40 21 SSE 995,1 9 0,2
10.12.2017 11:00:00 0,9 -0,1 34 18 43 23 SSE 994,9 6 0,3
10.12.2017 10:00:00 1,2 0,2 35 19 47 25 SSE 994,9 9 0,0
10.12.2017 09:00:00 1,5 0,9 29 16 43 23 SSE 994,1 9 0,1
10.12.2017 08:00:00 1,0 0,7 29 16 40 21 SSE 993,6 9 0,5
10.12.2017 07:00:00 0,1 0,0 31 17 40 21 SSE 993,1 1,2 1,0
10.12.2017 06:00:00 0,6 0,2 28 15 40 21 SSE 992,8 2,7 0,4
10.12.2017 05:00:00 1,3 0,6 31 17 40 21 SSE 992,4 10 0,3
10.12.2017 04:00:00 1,3 0,7 24 13 40 21 SSE 992,4 9 0,1
10.12.2017 03:00:00 1,0 0,0 22 12 - - SSE - 10 -
10.12.2017 02:00:00 1,8 0,8 26 14 36 19 SSE 992,0 10 0,0
10.12.2017 01:00:00 1,7 0,8 24 13 32 18 SSE 991,8 10 0,0
10.12.2017 00:00:00 1,5 0,9 26 14 32 18 SSE 991,6 7 0,2
09.12.2017 23:00:00 1,7 0,8 26 14 32 18 SSE 991,4 7 0,0
09.12.2017 22:00:00 1,7 1,0 24 13 32 18 SSE 991,1 10 0,0
09.12.2017 21:00:00 1,6 1,0 21 11 29 16 SSE 990,8 5 0,3
09.12.2017 20:00:00 1,8 0,9 22 12 25 14 SSE 990,4 10 0,0
09.12.2017 19:00:00 1,9 1,0 21 11 25 14 SSE 989,9 10 0,0
09.12.2017 18:00:00 1,6 1,0 16 9 32 18 SSE 989,8 10 0,2
09.12.2017 17:00:00 1,4 1,0 21 11 25 14 SSE 989,5 10 0,0
09.12.2017 16:00:00 1,6 1,0 21 11 32 18 SE 989,2 10 0,0
09.12.2017 15:00:00 1,4 1,0 28 15 40 21 SE 988,9 6 0,0
09.12.2017 14:00:00 1,7 1,0 29 16 40 21 SE 988,6 5 0,1
09.12.2017 13:00:00 1,9 0,7 28 15 36 19 SE 988,4 10 0,0
09.12.2017 12:00:00 1,8 0,6 34 18 43 23 SE 988,3 10 0,0
09.12.2017 11:00:00 1,8 0,6 35 19 47 25 SE 988,0 10 0,0
09.12.2017 10:00:00 2,0 0,5 34 18 47 25 SE 987,7 10 0,0
09.12.2017 09:00:00 2,0 0,8 35 19 47 25 SE 987,2 10 0,2
09.12.2017 08:00:00 2,0 0,8 36 19 43 23 SE 986,4 18 0,0
09.12.2017 07:00:00 2,0 1,0 34 18 - - SE - 8 -
09.12.2017 06:00:00 1,6 0,9 34 18 47 25 SE 985,5 10 0,4
09.12.2017 05:00:00 1,4 0,9 29 16 43 23 SE 985,3 11 0,4
09.12.2017 04:00:00 1,2 0,8 32 18 43 23 ESE 985,3 5 0,4
09.12.2017 03:00:00 1,6 0,7 26 14 40 21 ESE 985,6 10 0,0
09.12.2017 02:00:00 1,5 0,8 25 14 40 21 ESE 985,6 40 0,0
09.12.2017 01:00:00 1,6 0,8 28 15 40 21 SE 985,7 10 0,0
09.12.2017 00:00:00 1,6 0,9 28 15 40 21 SE 985,2 10 0,0
08.12.2017 23:00:00 1,4 0,8 29 16 36 19 SE 985,2 30 0,0
08.12.2017 22:00:00 1,5 0,9 24 13 32 18 SE 985,1 10 0,0
08.12.2017 21:00:00 1,3 0,7 24 13 32 18 SE 984,9 10 0,0
08.12.2017 20:00:00 1,2 0,6 26 14 36 19 SE 984,3 10 0,0
08.12.2017 19:00:00 1,0 0,4 24 13 36 19 SE 984,3 10 0,0
08.12.2017 18:00:00 0,9 0,5 26 14 32 18 SE 984,0 10 0,0
08.12.2017 17:00:00 0,6 0,2 24 13 36 19 ESE 983,9 10 0,0
08.12.2017 16:00:00 0,5 0,1 24 13 36 19 ESE 983,7 10 0,0
08.12.2017 15:00:00 0,2 -0,1 24 13 36 19 ESE 983,8 10 0,0
08.12.2017 14:00:00 -0,1 -0,4 26 14 36 19 ESE 983,8 5 0,1
08.12.2017 13:00:00 -0,1 -0,5 28 15 40 21 SE 984,0 10 0,0
08.12.2017 12:00:00 0,0 -0,4 29 16 40 21 SE 984,1 3,0 0,0
08.12.2017 11:00:00 -0,1 -0,5 31 17 43 23 SE 984,0 5 0,2
08.12.2017 10:00:00 -0,2 -0,5 31 17 50 27 SE 984,1 3,5 0,2
08.12.2017 09:00:00 -0,2 -0,6 34 18 54 29 SE 983,9 4,0 0,0
08.12.2017 08:00:00 -0,7 -0,8 34 18 50 27 SE 983,7 1,7 0,4
08.12.2017 07:00:00 -1,0 -1,3 35 19 50 27 SE 984,0 1,1 0,8
08.12.2017 06:00:00 -1,2 -1,6 37 20 54 29 SE 984,4 1,5 0,6
08.12.2017 05:00:00 -1,4 -1,8 37 20 58 31 SE 984,9 1,2 0,4
08.12.2017 04:00:00 -1,6 -2,0 41 22 58 31 SE 985,5 0,7 0,9
08.12.2017 03:00:00 -1,7 -2,3 42 23 68 37 ESE 986,5 1,1 0,9
08.12.2017 02:00:00 -1,9 -2,3 46 25 68 37 ESE 987,3 1,1 0,8
08.12.2017 01:00:00 -2,1 -2,5 41 22 65 35 ESE 988,4 1,1 0,8
08.12.2017 00:00:00 -2,1 -2,5 41 22 61 33 ESE 989,8 1,7 0,4
07.12.2017 23:00:00 -2,3 -2,7 34 18 54 29 ESE 990,4 1,5 0,7
07.12.2017 22:00:00 -2,6 -3,1 34 18 54 29 ESE 991,7 1,5 1,0
07.12.2017 21:00:00 -2,5 -3,0 34 18 54 29 ESE 993,3 2,0 1,0
07.12.2017 20:00:00 -2,5 -3,2 37 20 50 27 ESE 994,5 1,4 0,4
07.12.2017 19:00:00 -2,4 -3,2 34 18 47 25 ESE 995,8 4,2 0,2
07.12.2017 18:00:00 -2,7 -3,5 31 17 43 23 SE 997,0 6 0,1
07.12.2017 17:00:00 -2,7 -4,0 29 16 40 21 SE 998,1 8 0,0
07.12.2017 16:00:00 -3,0 -4,3 22 12 29 16 SE 999,2 10 0,0
07.12.2017 15:00:00 -6,4 -6,9 16 9 22 12 SE 1000,2 10 0,0
07.12.2017 14:00:00 -11,0 -12,0 2 1 11 6 - 1001,6 10 0,0
07.12.2017 13:00:00 -10,2 -11,2 4 2 7 4 - 1002,7 10 0,0
07.12.2017 12:00:00 -11,8 -12,8 4 2 11 6 - 1003,0 3,0 0,3
07.12.2017 11:00:00 -13,6 -14,9 4 2 7 4 - 1003,7 5 0,2
07.12.2017 10:00:00 -14,6 -16,0 4 2 7 4 - 1004,3 4,0 0,1
07.12.2017 09:00:00 -15,6 -17,1 5 3 7 4 N 1004,8 4,0 0,2
07.12.2017 08:00:00 -15,9 -17,4 4 2 7 4 - 1005,1 4,0 0,2
07.12.2017 07:00:00 -16,2 -17,9 4 2 7 4 - 1005,4 1,5 0,2
07.12.2017 06:00:00 -16,7 -18,4 4 2 7 4 - 1005,3 0,8 0,0
07.12.2017 05:00:00 -17,5 -19,1 4 2 7 4 - 1005,6 1,1 0,0
07.12.2017 04:00:00 -19,1 -20,8 5 3 7 4 NW 1005,7 7 0,2
07.12.2017 03:00:00 -19,5 -21,4 2 1 7 4 - 1006,0 0,6 0,4
07.12.2017 02:00:00 -19,4 -21,1 4 2 7 4 NNW 1005,9 2,7 0,0
07.12.2017 01:00:00 -20,5 -22,4 5 3 7 4 NNW 1005,8 10 0,0
07.12.2017 00:00:00 -18,7 -20,5 4 2 7 4 NW 1005,9 10 0,0
06.12.2017 23:00:00 -19,6 -21,5 4 2 7 4 - 1005,6 10 0,0
06.12.2017 22:00:00 -19,3 -21,0 4 2 7 4 NW 1005,4 10 0,0
06.12.2017 21:00:00 -18,4 -20,2 2 1 4 2 - 1005,3 10 0,0
06.12.2017 20:00:00 -17,9 -19,5 4 2 7 4 NW 1005,1 10 0,0
06.12.2017 19:00:00 -18,0 -19,8 4 2 7 4 - 1004,8 10 0,0
06.12.2017 18:00:00 -17,2 -18,8 2 1 4 2 - 1004,7 10 0,0
06.12.2017 17:00:00 -17,4 -19,2 4 2 7 4 NW 1004,5 10 0,0
06.12.2017 16:00:00 -15,6 -16,9 4 2 7 4 - 1004,1 10 0,0
06.12.2017 15:00:00 -16,5 -18,2 2 1 4 2 - 1003,8 10 0,0
06.12.2017 14:00:00 -15,8 -17,5 0 0 7 4 N 1003,5 10 0,0
06.12.2017 13:00:00 -15,3 -16,8 2 1 4 2 - 1003,1 10 0,0
06.12.2017 12:00:00 -14,1 -15,4 2 1 4 2 - 1002,6 10 0,0
06.12.2017 11:00:00 -13,9 -15,2 2 1 7 4 - 1002,2 10 0,0
06.12.2017 10:00:00 -14,3 -15,7 2 1 7 4 SW 1001,8 10 0,0
06.12.2017 09:00:00 -12,9 -14,1 5 3 7 4 NNW 1001,5 10 0,0
06.12.2017 08:00:00 -12,5 -13,9 5 3 11 6 NNW 1001,0 10 0,0
06.12.2017 07:00:00 -10,3 -11,2 9 5 11 6 NW 1000,7 10 0,0
06.12.2017 06:00:00 -12,7 -13,9 5 3 7 4 NNW 1000,1 10 0,0
06.12.2017 05:00:00 -12,4 -13,4 5 3 11 6 N 999,6 10 0,0

tt = Température de l'air
td = dewpoint
ff = Vitesse du vent
fx = gusts
dd = Direction du vent
ppp = reduced air pressure
vv = visibility
rr = Quantités de précipitations

stations d'obs. à proximité